| time (UTC) | temp C | wind direction | speed KPH | gust KPH | rain 1hr cm | rain 24hr cm | rain mn cm | humidity % | barometer mb |
| 20260504214505 | 23 | 269 | 3.2 | 9.7 | 0.00 | 0.00 | 0.00 | 55 | 1010.1 |
| 20260504214005 | 22 | 188 | 4.8 | 8.0 | 0.00 | 0.00 | 0.00 | 51 | 1010.0 |
| 20260504213505 | 22 | 206 | 3.2 | 11.3 | 0.00 | 0.00 | 0.00 | 50 | 1009.9 |
| 20260504211505 | 22 | 152 | 3.2 | 11.3 | 0.00 | 0.00 | 0.00 | 53 | 1010.0 |
| 20260504211005 | 22 | 117 | 4.8 | 9.7 | 0.00 | 0.00 | 0.00 | 49 | 1010.1 |
| 20260504210505 | 22 | 211 | 3.2 | 9.7 | 0.00 | 0.00 | 0.00 | 52 | 1010.0 |
| 20260504210005 | 22 | 279 | 3.2 | 11.3 | 0.00 | 0.00 | 0.00 | 52 | 1010.1 |
| 20260504205505 | 21 | 290 | 3.2 | 11.3 | 0.00 | 0.00 | 0.00 | 53 | 1010.1 |
| 20260504205006 | 21 | 301 | 3.2 | 9.7 | 0.00 | 0.00 | 0.00 | 56 | 1010.2 |
| 20260504204505 | 21 | 241 | 3.2 | 11.3 | 0.00 | 0.00 | 0.00 | 57 | 1010.2 |
| 20260504203005 | 22 | 168 | 4.8 | 9.7 | 0.00 | 0.00 | 0.00 | 54 | 1010.3 |
| 20260504202005 | 22 | 126 | 3.2 | 9.7 | 0.00 | 0.00 | 0.00 | 59 | 1010.2 |
| 20260504201506 | 22 | 89 | 4.8 | 11.3 | 0.00 | 0.00 | 0.00 | 54 | 1010.3 |
| 20260504201006 | 21 | 135 | 1.6 | 12.9 | 0.00 | 0.00 | 0.00 | 58 | 1010.3 |
| 20260504200505 | 21 | 291 | 4.8 | 12.9 | 0.00 | 0.00 | 0.00 | 57 | 1010.3 |
| 20260504200008 | 21 | 309 | 3.2 | 9.7 | 0.00 | 0.00 | 0.00 | 60 | 1010.4 |
| 20260504195506 | 21 | 113 | 3.2 | 9.7 | 0.00 | 0.00 | 0.00 | 56 | 1010.4 |
| 20260504194506 | 21 | 157 | 3.2 | 11.3 | 0.00 | 0.00 | 0.00 | 59 | 1010.4 |
| 20260504194005 | 21 | 126 | 3.2 | 9.7 | 0.00 | 0.00 | 0.00 | 60 | 1010.4 |
| 20260504193505 | 21 | 174 | 3.2 | 9.7 | 0.00 | 0.00 | 0.00 | 59 | 1010.4 |
| 20260504193006 | 21 | 178 | 3.2 | 8.0 | 0.00 | 0.00 | 0.00 | 62 | 1010.4 |
| 20260504192504 | 21 | 314 | 3.2 | 8.0 | 0.00 | 0.00 | 0.00 | 60 | 1010.3 |
| 20260504192005 | 21 | 195 | 3.2 | 8.0 | 0.00 | 0.00 | 0.00 | 60 | 1010.3 |
| 20260504191505 | 20 | 178 | 4.8 | 11.3 | 0.00 | 0.00 | 0.00 | 60 | 1010.4 |
| 20260504191006 | 20 | 178 | 4.8 | 11.3 | 0.00 | 0.00 | 0.00 | 59 | 1010.4 |
| 20260504190505 | 20 | 254 | 1.6 | 9.7 | 0.00 | 0.00 | 0.00 | 59 | 1010.4 |
| 20260504185505 | 20 | 178 | 4.8 | 9.7 | 0.00 | 0.00 | 0.00 | 61 | 1010.5 |
| 20260504185006 | 20 | 200 | 3.2 | 9.7 | 0.00 | 0.00 | 0.00 | 61 | 1010.5 |
| 20260504184005 | 20 | 154 | 1.6 | 9.7 | 0.00 | 0.00 | 0.00 | 65 | 1010.4 |
| 20260504183505 | 20 | 139 | 3.2 | 11.3 | 0.00 | 0.00 | 0.00 | 64 | 1010.5 |
| 20260504183006 | 20 | 223 | 3.2 | 11.3 | 0.00 | 0.00 | 0.00 | 64 | 1010.5 |
| 20260504182505 | 20 | 301 | 4.8 | 9.7 | 0.00 | 0.00 | 0.00 | 64 | 1010.5 |
| 20260504182004 | 20 | 161 | 3.2 | 8.0 | 0.00 | 0.00 | 0.00 | 66 | 1010.5 |
| 20260504181505 | 19 | 178 | 3.2 | 8.0 | 0.00 | 0.00 | 0.00 | 67 | 1010.6 |
| 20260504181005 | 19 | 241 | 4.8 | 9.7 | 0.00 | 0.00 | 0.00 | 67 | 1010.5 |
| 20260504180505 | 18 | 303 | 6.4 | 9.7 | 0.00 | 0.00 | 0.00 | 66 | 1010.5 |
| 20260504180327 | 19 | 89 | 4.8 | 9.7 | 0.00 | 0.00 | 0.00 | 68 | 1010.4 |
| 20260504151006 | 13 | 1 | 1.6 | 4.8 | 0.00 | 0.00 | 0.00 | 81 | 1010.5 |
| 20260504150504 | 12 | 1 | 1.6 | 4.8 | 0.00 | 0.00 | 0.00 | 82 | 1010.5 |
| 20260504141004 | 10 | 89 | 1.6 | 3.2 | 0.00 | 0.00 | 0.00 | 92 | 1009.9 |
| 20260504140505 | 10 | 161 | 0.0 | 3.2 | 0.00 | 0.00 | 0.00 | 92 | 1009.9 |
| 20260504130504 | 9 | 331 | 0.0 | 1.6 | 0.00 | 0.00 | 0.00 | 91 | 1009.4 |
| 20260504100504 | 10 | 331 | 1.6 | 3.2 | 0.00 | 0.00 | 0.00 | 89 | 1009.4 |
| 20260504082005 | 11 | 344 | 1.6 | 3.2 | 0.00 | 0.00 | 0.00 | 86 | 1009.5 |
| 20260504081505 | 11 | 331 | 0.0 | 3.2 | 0.00 | 0.00 | 0.00 | 86 | 1009.5 |
| 20260504081004 | 11 | 314 | 1.6 | 3.2 | 0.00 | 0.00 | 0.00 | 85 | 1009.5 |
| 20260504080504 | 11 | 340 | 1.6 | 3.2 | 0.00 | 0.00 | 0.00 | 86 | 1009.5 |
| 20260504045505 | 13 | 324 | 1.6 | 3.2 | 0.00 | 0.00 | 0.00 | 80 | 1009.5 |
| 20260504045005 | 13 | 344 | 1.6 | 3.2 | 0.00 | 0.00 | 0.00 | 79 | 1009.6 |
| 20260504044505 | 13 | 1 | 1.6 | 3.2 | 0.00 | 0.00 | 0.00 | 79 | 1009.5 |
| 20260504044005 | 13 | 1 | 0.0 | 4.8 | 0.00 | 0.00 | 0.00 | 78 | 1009.6 |
| 20260504043006 | 14 | 269 | 1.6 | 3.2 | 0.00 | 0.00 | 0.00 | 78 | 1009.6 |
| 20260504042505 | 14 | 1 | 1.6 | 3.2 | 0.00 | 0.00 | 0.00 | 77 | 1009.5 |
| 20260504042005 | 14 | 1 | 0.0 | 3.2 | 0.00 | 0.00 | 0.00 | 76 | 1009.6 |
| 20260504041005 | 15 | 331 | 1.6 | 3.2 | 0.00 | 0.00 | 0.00 | 76 | 1009.6 |
| 20260504040506 | 15 | 1 | 0.0 | 1.6 | 0.00 | 0.00 | 0.00 | 76 | 1009.7 |
| 20260504040006 | 15 | 1 | 0.0 | 3.2 | 0.00 | 0.00 | 0.00 | 76 | 1009.6 |
| 20260504035006 | 15 | 340 | 1.6 | 3.2 | 0.00 | 0.00 | 0.00 | 74 | 1009.6 |
| 20260504034505 | 16 | 336 | 1.6 | 3.2 | 0.00 | 0.00 | 0.00 | 72 | 1009.6 |
| 20260504033505 | 16 | 1 | 0.0 | 3.2 | 0.00 | 0.00 | 0.00 | 72 | 1009.7 |
| 20260504033007 | 16 | 1 | 1.6 | 3.2 | 0.00 | 0.00 | 0.00 | 70 | 1009.7 |
| 20260504032505 | 17 | 1 | 0.0 | 3.2 | 0.00 | 0.00 | 0.00 | 68 | 1009.6 |
| 20260504032005 | 17 | 340 | 1.6 | 3.2 | 0.00 | 0.00 | 0.00 | 67 | 1009.6 |
| 20260504031505 | 17 | 46 | 0.0 | 3.2 | 0.00 | 0.00 | 0.00 | 66 | 1009.5 |
| 20260504031005 | 17 | 286 | 0.0 | 1.6 | 0.00 | 0.00 | 0.00 | 65 | 1009.5 |
| 20260504030505 | 18 | 89 | 0.0 | 1.6 | 0.00 | 0.00 | 0.00 | 64 | 1009.6 |
| 20260504030007 | 18 | 46 | 0.0 | 1.6 | 0.00 | 0.00 | 0.00 | 63 | 1009.5 |
| 20260504025505 | 18 | 135 | 0.0 | 3.2 | 0.00 | 0.00 | 0.00 | 63 | 1009.6 |
| 20260504025008 | 19 | 152 | 0.0 | 3.2 | 0.00 | 0.00 | 0.00 | 62 | 1009.5 |
| 20260504024007 | 20 | 269 | 1.6 | 3.2 | 0.00 | 0.00 | 0.00 | 60 | 1009.6 |
| 20260504023504 | 20 | 286 | 0.0 | 4.8 | 0.00 | 0.00 | 0.00 | 59 | 1009.5 |
| 20260504023006 | 20 | 269 | 1.6 | 6.4 | 0.00 | 0.00 | 0.00 | 57 | 1009.6 |
| 20260504022505 | 20 | 296 | 1.6 | 6.4 | 0.00 | 0.00 | 0.00 | 59 | 1009.6 |
| 20260504022005 | 20 | 178 | 0.0 | 3.2 | 0.00 | 0.00 | 0.00 | 59 | 1009.6 |
| 20260504021505 | 20 | 46 | 1.6 | 4.8 | 0.00 | 0.00 | 0.00 | 58 | 1009.7 |
| 20260504021005 | 20 | 89 | 1.6 | 4.8 | 0.00 | 0.00 | 0.00 | 57 | 1009.8 |
| 20260504020504 | 20 | 1 | 1.6 | 4.8 | 0.00 | 0.00 | 0.00 | 57 | 1009.9 |
| 20260504020006 | 20 | 152 | 1.6 | 4.8 | 0.00 | 0.00 | 0.00 | 56 | 1010.0 |
| 20260504015504 | 21 | 178 | 1.6 | 4.8 | 0.00 | 0.00 | 0.00 | 55 | 1010.1 |
| 20260504015006 | 21 | 178 | 1.6 | 4.8 | 0.00 | 0.00 | 0.00 | 55 | 1010.0 |
| 20260504014505 | 21 | 206 | 1.6 | 6.4 | 0.00 | 0.00 | 0.00 | 55 | 1010.1 |
| 20260504014005 | 21 | 193 | 3.2 | 6.4 | 0.00 | 0.00 | 0.00 | 54 | 1010.0 |
| 20260504013505 | 21 | 314 | 1.6 | 8.0 | 0.00 | 0.00 | 0.00 | 55 | 1010.1 |
| 20260504013006 | 22 | 269 | 3.2 | 8.0 | 0.00 | 0.00 | 0.00 | 53 | 1010.1 |
| 20260504012005 | 22 | 138 | 4.8 | 6.4 | 0.00 | 0.00 | 0.00 | 54 | 1010.2 |
| 20260504011505 | 23 | 278 | 3.2 | 6.4 | 0.00 | 0.00 | 0.00 | 52 | 1010.2 |
| 20260504011005 | 23 | 206 | 1.6 | 6.4 | 0.00 | 0.00 | 0.00 | 52 | 1010.2 |
| 20260504010505 | 23 | 306 | 3.2 | 6.4 | 0.00 | 0.00 | 0.00 | 52 | 1010.3 |
| 20260504010006 | 23 | 178 | 1.6 | 4.8 | 0.00 | 0.00 | 0.00 | 53 | 1010.4 |
| 20260504005505 | 23 | 223 | 3.2 | 4.8 | 0.00 | 0.00 | 0.00 | 53 | 1010.4 |
| 20260504005005 | 23 | 303 | 1.6 | 4.8 | 0.00 | 0.00 | 0.00 | 60 | 1010.5 |
| 20260504004506 | 22 | 108 | 1.6 | 6.4 | 0.00 | 0.00 | 0.00 | 55 | 1010.5 |
| 20260504004005 | 22 | 283 | 3.2 | 8.0 | 0.00 | 0.00 | 0.00 | 54 | 1010.6 |
| 20260504003505 | 22 | 178 | 4.8 | 8.0 | 0.00 | 0.00 | 0.00 | 55 | 1010.6 |
| 20260504003006 | 22 | 195 | 3.2 | 8.0 | 0.00 | 0.00 | 0.00 | 57 | 1010.6 |
| 20260504002506 | 22 | 135 | 3.2 | 9.7 | 0.00 | 0.00 | 0.00 | 56 | 1010.6 |
| 20260504002005 | 23 | 197 | 4.8 | 9.7 | 0.00 | 0.00 | 0.00 | 54 | 1010.6 |
| 20260504001505 | 23 | 135 | 3.2 | 8.0 | 0.00 | 0.00 | 0.00 | 53 | 1010.6 |
| 20260504001005 | 23 | 296 | 1.6 | 8.0 | 0.00 | 0.00 | 0.00 | 53 | 1010.7 |
| 20260504000505 | 23 | 117 | 4.8 | 9.7 | 0.00 | 0.00 | 0.00 | 57 | 1010.6 |
| 20260504000007 | 23 | 124 | 3.2 | 9.7 | 0.00 | 0.00 | 0.00 | 60 | 1010.7 |
| 20260503235005 | 23 | 100 | 4.8 | 11.3 | 0.00 | 0.00 | 0.00 | 55 | 1010.9 |
| 20260503234505 | 23 | 124 | 4.8 | 11.3 | 0.00 | 0.00 | 0.00 | 54 | 1011.0 |
| 20260503234006 | 23 | 122 | 4.8 | 11.3 | 0.00 | 0.00 | 0.00 | 55 | 1010.9 |
| 20260503233504 | 24 | 130 | 3.2 | 12.9 | 0.00 | 0.00 | 0.00 | 55 | 1010.9 |
| 20260503233005 | 25 | 145 | 4.8 | 12.9 | 0.00 | 0.00 | 0.00 | 51 | 1011.0 |
| 20260503232504 | 25 | 250 | 3.2 | 9.7 | 0.00 | 0.00 | 0.00 | 47 | 1011.0 |
| 20260503232007 | 25 | 1 | 3.2 | 9.7 | 0.00 | 0.00 | 0.00 | 45 | 1011.1 |
| 20260503231505 | 25 | 335 | 4.8 | 11.3 | 0.00 | 0.00 | 0.00 | 47 | 1011.1 |
| 20260503231005 | 24 | 300 | 4.8 | 11.3 | 0.00 | 0.00 | 0.00 | 47 | 1011.3 |
| 20260503230505 | 24 | 1 | 6.4 | 11.3 | 0.00 | 0.00 | 0.00 | 47 | 1011.3 |
| 20260503230006 | 25 | 284 | 4.8 | 11.3 | 0.00 | 0.00 | 0.00 | 49 | 1011.5 |
| 20260503225505 | 24 | 178 | 4.8 | 11.3 | 0.00 | 0.00 | 0.00 | 50 | 1011.5 |
| 20260503225005 | 24 | 1 | 1.6 | 11.3 | 0.00 | 0.00 | 0.00 | 50 | 1011.6 |
| 20260503224509 | 24 | 344 | 4.8 | 11.3 | 0.00 | 0.00 | 0.00 | 45 | 1011.7 |
| 20260503224005 | 25 | 354 | 4.8 | 12.9 | 0.00 | 0.00 | 0.00 | 42 | 1011.7 |
| 20260503223505 | 25 | 303 | 4.8 | 12.9 | 0.00 | 0.00 | 0.00 | 45 | 1011.8 |
| 20260503222505 | 25 | 335 | 4.8 | 8.0 | 0.00 | 0.00 | 0.00 | 49 | 1011.8 |
| 20260503221505 | 24 | 276 | 4.8 | 9.7 | 0.00 | 0.00 | 0.00 | 46 | 1012.0 |
| 20260503221006 | 23 | 1 | 3.2 | 9.7 | 0.00 | 0.00 | 0.00 | 49 | 1012.0 |
| 20260503220505 | 23 | 1 | 4.8 | 8.0 | 0.00 | 0.00 | 0.00 | 45 | 1012.0 |
| 20260503220010 | 23 | 264 | 3.2 | 9.7 | 0.00 | 0.00 | 0.00 | 47 | 1012.1 |
| 20260503215505 | 23 | 279 | 4.8 | 11.3 | 0.00 | 0.00 | 0.00 | 47 | 1012.2 |